Location: Seasalter
(51.3333°N, 1.0167°E)
Time: 13:00:34
(UTC+00:00)

Cosmos 1417 Rocket - Pass Details

Date: 26 September 2023
Orbit: 952 x 998 km, 83.0° (Epoch: 10 December)

Event Time Altitude Azimuth Distance (km) Brightness Sun altitude
Rises 03:00:18 0° 350° (N) 3,696 7.8 -25.6°
Reaches altitude 10° 03:02:51 10° 351° (N) 2,737 7.1 -25.2°
Maximum altitude 03:09:08 87° 80° (E) 977 4.4 -24.4°
Enters shadow 03:15:14 10° 171° (S) 2,664 6.6 -23.6°
